Location: Most
(50.5133°N, 13.6207°E)
Time: 01:45:30
(UTC+02:00)

ISS - Pass Details

Date: 25 September 2021
Orbit: 417 x 423 km, 51.6° (Epoch: 22 October)

Event Time Altitude Azimuth Distance (km) Brightness Sun altitude
Rises 20:07:10 0° 269° (W) 2,362 1.8 -12.0°
Reaches altitude 10° 20:09:16 10° 272° (W) 1,500 0.5 -12.3°
Maximum altitude 20:12:37 71° 356° (N) 447 -3.6 -12.8°
Enters shadow 20:14:41 22° 78° (ENE) 984 -2.4 -13.1°
